Regional Weather Roundup
Issued by NWS

Home | Current Version | Previous Version | Text Only | Print | Product List | Glossary On
Versions: 1 2 3 4 5 6 7 8 9 10 11 12 13 14 15 16 17 18 19 20 21 22 23 24 25 26 27 28 29 30 31 32 33 34 35 36 37 38 39 40 41 42 43 44 45 46 47 48 49 50
000
ASUS44 KOUN 231610
RWROK

WEATHER ROUNDUP FOR OKLAHOMA
NATIONAL WEATHER SERVICE NORMAN OK
1100 AM CDT WED JUL 23 2014

NOTE: "FAIR" INDICATES FEW OR NO CLOUDS BELOW 12,000 FEET WITH NO
      SIGNIFICANT WEATHER AND/OR OBSTRUCTIONS TO VISIBILITY.

OKZ001>007-009>012-014-015-017-231700-
NORTHWEST OKLAHOMA AND THE PANHANDLE

CITY           SKY/WX    TMP DP  RH WIND       PRES   REMARKS
GAGE           SUNNY     88  68  51 W5        30.20S HX  91
ENID/WOODRING  MOSUNNY   91  72  52 NW15      30.12S HX  98
$$

OKZ016-021>023-033>039-044-045-231700-
SOUTHWEST OKLAHOMA

CITY           SKY/WX    TMP DP  RH WIND       PRES   REMARKS
LAWTON/REGL    SUNNY     88  70  55 SW6       30.14F HX  93
LAWTON/FT SILL SUNNY     89  72  57 W6        30.13F HX  96
FREDERICK      SUNNY     88  72  58 SW3       30.12F HX  94
CLINTON        SUNNY     90  67  46 W8        30.19F HX  93
HOBART         SUNNY     88  71  57 W5        30.17S HX  94
ALTUS AFB      SUNNY     86  73  66 CALM      30.16S HX  93
$$

OKZ018>020-024>031-231700-
CENTRAL OKLAHOMA

CITY           SKY/WX    TMP DP  RH WIND       PRES   REMARKS
OKLAHOMA CITY  SUNNY     89  73  59 W7        30.15S HX  97
OKC/WILEY POST SUNNY     88  73  61 NW9       30.15R HX  95
OKC/TINKER AFB SUNNY     87  73  63 NW7       30.15S HX  93
STILLWATER     SUNNY     88  74  63 W7        30.11F HX  96
GUTHRIE          N/A     88  73  61 NW8       30.14  HX  95
$$

OKZ008-013-054>072-231700-
NORTHEAST OKLAHOMA

CITY           SKY/WX    TMP DP  RH WIND       PRES   REMARKS
TULSA          PTSUNNY   90  76  63 VRB5      30.08F HX 101
TULSA/JONES    SUNNY     89  76  65 VRB5      30.10R HX 100
PONCA CITY     PTSUNNY   87  76  69 VRB5      30.12R HX  97
BARTLESVILLE   MOSUNNY   89  76  65 VRB3      30.10F HX 100
MUSKOGEE       SUNNY     88  77  69 W8        30.10F HX 100
$$

OKZ032-040>043-046>053-073>077-231700-
SOUTH CENTRAL/SOUTHEAST OKLAHOMA

CITY           SKY/WX    TMP DP  RH WIND       PRES   REMARKS
ARDMORE/DWNTWN SUNNY     86  70  58 CALM      30.12F HX  90
MCALESTER      SUNNY     87  75  67 SW6       30.11F HX  96
$$



USA.gov is the U.S. government's official web portal to all federal, state and local government web resources and services.